Time,TemperatureF,DewpointF,PressureIn,WindDirection,WindDirectionDegrees,WindSpeedMPH,WindSpeedGustMPH,Humidity,HourlyPrecipIn,Conditions,Clouds,dailyrainin,SoftwareType,DateUTC
2013-03-17 00:01:00,40.3,35.5,30.03,SE,128,0.0,1.0,83,0.00,,,0.05,Wunderground v.1.15,2013-03-17 07:01:00,
2013-03-17 00:11:00,40.3,35.5,30.04,ESE,117,0.0,1.0,83,0.00,,,0.05,Wunderground v.1.15,2013-03-17 07:11:00,
2013-03-17 00:16:00,40.3,35.8,30.04,North,0,0.0,2.0,84,0.00,,,0.05,Wunderground v.1.15,2013-03-17 07:16:00,
2013-03-17 00:21:00,40.3,35.5,30.05,SSE,161,0.0,1.0,83,0.00,,,0.05,Wunderground v.1.15,2013-03-17 07:21:00,
2013-03-17 00:31:00,40.3,35.5,30.05,SW,216,0.0,2.0,83,0.00,,,0.05,Wunderground v.1.15,2013-03-17 07:31:00,
2013-03-17 00:36:00,40.3,35.5,30.05,WSW,253,0.0,2.0,83,0.00,,,0.05,Wunderground v.1.15,2013-03-17 07:36:00,
2013-03-17 00:46:00,40.3,35.5,30.05,WSW,253,0.0,2.0,83,0.00,,,0.05,Wunderground v.1.15,2013-03-17 07:46:00,
2013-03-17 00:51:00,40.2,35.8,30.05,SW,236,0.0,1.0,84,0.00,,,0.05,Wunderground v.1.15,2013-03-17 07:51:00,
2013-03-17 00:56:00,40.2,35.8,30.05,SW,234,0.0,1.0,84,0.00,,,0.05,Wunderground v.1.15,2013-03-17 07:56:00,
2013-03-17 01:01:00,40.2,35.8,30.05,SW,226,0.0,1.0,84,0.00,,,0.05,Wunderground v.1.15,2013-03-17 08:01:00,
2013-03-17 01:10:00,40.2,35.8,30.06,NE,37,0.0,1.0,84,0.00,,,0.00,Wunderground v.1.15,2013-03-17 08:10:00,
2013-03-17 01:16:00,40.1,35.7,30.06,NE,37,0.0,1.0,84,0.00,,,0.00,Wunderground v.1.15,2013-03-17 08:16:00,
2013-03-17 01:25:00,39.9,35.5,30.06,ESE,106,0.0,1.0,84,0.00,,,0.00,Wunderground v.1.15,2013-03-17 08:25:00,
2013-03-17 01:31:00,39.9,35.5,30.06,ESE,106,0.0,1.0,84,0.00,,,0.00,Wunderground v.1.15,2013-03-17 08:31:00,
2013-03-17 01:36:00,39.8,35.4,30.06,ESE,106,0.0,1.0,84,0.00,,,0.00,Wunderground v.1.15,2013-03-17 08:36:00,
2013-03-17 01:46:00,39.6,35.2,30.06,SE,138,0.0,2.0,84,0.00,,,0.00,Wunderground v.1.15,2013-03-17 08:46:00,
2013-03-17 01:56:00,39.3,34.9,30.07,NNE,18,0.0,1.0,84,0.00,,,0.00,Wunderground v.1.15,2013-03-17 08:56:00,
2013-03-17 02:01:00,39.2,35.1,30.07,NNE,18,0.0,1.0,85,0.00,,,0.00,Wunderground v.1.15,2013-03-17 09:01:00,
2013-03-17 02:11:00,38.8,35.0,30.08,NNE,17,0.0,0.0,86,0.00,,,0.00,Wunderground v.1.15,2013-03-17 09:11:00,
2013-03-17 02:21:00,38.3,34.8,30.08,NNE,17,0.0,0.0,87,0.00,,,0.00,Wunderground v.1.15,2013-03-17 09:21:00,
2013-03-17 02:26:00,38.0,34.5,30.08,NNE,17,0.0,0.0,87,0.00,,,0.00,Wunderground v.1.15,2013-03-17 09:26:00,
2013-03-17 02:36:00,37.6,34.4,30.09,NNE,18,0.0,0.0,88,0.00,,,0.00,Wunderground v.1.15,2013-03-17 09:36:00,
2013-03-17 02:46:00,37.3,34.1,30.09,ESE,107,0.0,1.0,88,0.00,,,0.00,Wunderground v.1.15,2013-03-17 09:46:00,
2013-03-17 02:56:00,37.2,34.3,30.09,ESE,107,0.0,0.0,89,0.00,,,0.00,Wunderground v.1.15,2013-03-17 09:56:00,
2013-03-17 03:06:00,36.9,34.2,30.09,ESE,107,0.0,0.0,90,0.00,,,0.00,Wunderground v.1.15,2013-03-17 10:06:00,
2013-03-17 03:16:00,36.8,34.1,30.09,ESE,107,0.0,0.0,90,0.00,,,0.00,Wunderground v.1.15,2013-03-17 10:16:00,
2013-03-17 03:21:00,36.5,33.8,30.10,ESE,107,0.0,0.0,90,0.00,,,0.00,Wunderground v.1.15,2013-03-17 10:21:00,
2013-03-17 03:31:00,36.2,33.5,30.10,ESE,107,0.0,0.0,90,0.00,,,0.00,Wunderground v.1.15,2013-03-17 10:31:00,
2013-03-17 03:41:00,36.0,33.6,30.11,ESE,109,0.0,1.0,91,0.00,,,0.00,Wunderground v.1.15,2013-03-17 10:41:00,
2013-03-17 03:51:00,35.8,33.4,30.11,ESE,109,0.0,0.0,91,0.00,,,0.00,Wunderground v.1.15,2013-03-17 10:51:00,
2013-03-17 04:01:00,35.5,33.1,30.11,ESE,109,0.0,0.0,91,0.00,,,0.00,Wunderground v.1.15,2013-03-17 11:01:00,
2013-03-17 04:11:00,35.5,33.7,30.12,ESE,109,0.0,0.0,93,0.00,,,0.00,Wunderground v.1.15,2013-03-17 11:11:00,
2013-03-17 04:16:00,35.5,33.7,30.12,ESE,109,0.0,0.0,93,0.00,,,0.00,Wunderground v.1.15,2013-03-17 11:16:00,
2013-03-17 04:26:00,35.5,33.7,30.12,ESE,109,0.0,0.0,93,0.00,,,0.00,Wunderground v.1.15,2013-03-17 11:26:00,
2013-03-17 04:36:00,35.5,33.7,30.13,ESE,109,0.0,0.0,93,0.00,,,0.00,Wunderground v.1.15,2013-03-17 11:36:00,
2013-03-17 04:41:00,35.3,33.5,30.13,ESE,109,0.0,0.0,93,0.00,,,0.00,Wunderground v.1.15,2013-03-17 11:41:00,
2013-03-17 04:46:00,35.3,33.5,30.13,ESE,109,0.0,0.0,93,0.00,,,0.00,Wunderground v.1.15,2013-03-17 11:46:00,
2013-03-17 04:56:00,35.3,33.5,30.13,ESE,109,0.0,0.0,93,0.00,,,0.00,Wunderground v.1.15,2013-03-17 11:56:00,
2013-03-17 05:11:00,35.3,33.7,30.14,ESE,109,0.0,0.0,94,0.00,,,0.00,Wunderground v.1.15,2013-03-17 12:11:00,
2013-03-17 05:31:00,35.5,33.9,30.14,ESE,102,0.0,1.0,94,0.00,,,0.00,Wunderground v.1.15,2013-03-17 12:31:00,
2013-03-17 05:41:00,35.6,34.3,30.15,ESE,102,0.0,0.0,95,0.00,,,0.00,Wunderground v.1.15,2013-03-17 12:41:00,
2013-03-17 05:51:00,36.0,34.7,30.16,East,100,0.0,2.0,95,0.00,,,0.00,Wunderground v.1.15,2013-03-17 12:51:00,
2013-03-17 06:01:00,36.3,35.0,30.16,East,97,0.0,0.0,95,0.00,,,0.00,Wunderground v.1.15,2013-03-17 13:01:00,
2013-03-17 06:11:00,36.5,34.9,30.16,East,97,0.0,0.0,94,0.00,,,0.00,Wunderground v.1.15,2013-03-17 13:11:00,
2013-03-17 06:16:00,36.5,34.9,30.16,East,97,0.0,0.0,94,0.00,,,0.00,Wunderground v.1.15,2013-03-17 13:16:00,
2013-03-17 06:26:00,36.8,35.0,30.16,ESE,110,0.0,1.0,93,0.00,,,0.00,Wunderground v.1.15,2013-03-17 13:26:00,
2013-03-17 06:36:00,37.3,35.2,30.17,ENE,72,0.0,2.0,92,0.00,,,0.00,Wunderground v.1.15,2013-03-17 13:36:00,
2013-03-17 06:46:00,38.0,35.0,30.17,SE,126,0.0,2.0,89,0.00,,,0.00,Wunderground v.1.15,2013-03-17 13:46:00,
2013-03-17 06:51:00,38.2,35.0,30.18,SE,126,0.0,0.0,88,0.00,,,0.00,Wunderground v.1.15,2013-03-17 13:51:00,
2013-03-17 06:56:00,38.3,35.3,30.18,ESE,116,0.0,1.0,89,0.00,,,0.00,Wunderground v.1.15,2013-03-17 13:56:00,
2013-03-17 07:06:00,38.3,35.3,30.18,NE,56,0.0,0.0,89,0.00,,,0.00,Wunderground v.1.15,2013-03-17 14:06:00,
2013-03-17 07:16:00,38.5,35.3,30.18,East,89,0.0,4.0,88,0.00,,,0.01,Wunderground v.1.15,2013-03-17 14:16:00,
2013-03-17 07:26:00,38.6,35.6,30.19,East,89,0.0,0.0,89,0.00,,,0.01,Wunderground v.1.15,2013-03-17 14:26:00,
2013-03-17 07:36:00,38.6,35.4,30.20,ESE,102,0.0,2.0,88,0.00,,,0.01,Wunderground v.1.15,2013-03-17 14:36:00,
2013-03-17 07:41:00,38.6,35.4,30.20,NNE,32,0.0,6.0,88,0.00,,,0.01,Wunderground v.1.15,2013-03-17 14:41:00,
2013-03-17 07:51:00,38.6,35.4,30.20,ESE,117,0.0,2.0,88,0.00,,,0.01,Wunderground v.1.15,2013-03-17 14:51:00,
2013-03-17 08:01:00,38.5,35.3,30.20,SSE,150,0.0,1.0,88,0.00,,,0.01,Wunderground v.1.15,2013-03-17 15:01:00,
2013-03-17 08:11:00,38.5,35.5,30.21,SE,145,0.0,0.0,89,0.00,,,0.01,Wunderground v.1.15,2013-03-17 15:11:00,
2013-03-17 08:16:00,38.3,35.1,30.21,SE,130,0.0,1.0,88,0.00,,,0.01,Wunderground v.1.15,2013-03-17 15:16:00,
2013-03-17 08:26:00,38.5,35.3,30.21,SSE,147,0.0,2.0,88,0.00,,,0.01,Wunderground v.1.15,2013-03-17 15:26:00,
2013-03-17 08:31:00,38.6,35.6,30.21,SE,145,0.0,1.0,89,0.00,,,0.01,Wunderground v.1.15,2013-03-17 15:31:00,
2013-03-17 08:40:00,38.8,35.3,30.21,ESE,116,0.0,1.0,87,0.00,,,0.01,Wunderground v.1.15,2013-03-17 15:40:00,
2013-03-17 08:46:00,38.8,35.0,30.21,ESE,119,0.0,2.0,86,0.00,,,0.01,Wunderground v.1.15,2013-03-17 15:46:00,
2013-03-17 08:56:00,38.9,35.4,30.22,North,6,0.0,7.0,87,0.00,,,0.01,Wunderground v.1.15,2013-03-17 15:56:00,
2013-03-17 09:11:00,39.5,35.4,30.22,SE,133,1.0,1.0,85,0.00,,,0.01,Wunderground v.1.15,2013-03-17 16:11:00,
2013-03-17 09:16:00,39.6,35.2,30.22,ESE,120,1.0,6.0,84,0.00,,,0.01,Wunderground v.1.15,2013-03-17 16:16:00,
2013-03-17 09:26:00,39.9,35.2,30.23,ESE,121,1.0,6.0,83,0.00,,,0.01,Wunderground v.1.15,2013-03-17 16:26:00,
2013-03-17 09:36:00,40.3,35.5,30.24,SE,138,0.0,1.0,83,0.00,,,0.01,Wunderground v.1.15,2013-03-17 16:36:00,
2013-03-17 09:41:00,40.5,36.0,30.24,SE,140,0.0,4.0,84,0.00,,,0.01,Wunderground v.1.15,2013-03-17 16:41:00,
2013-03-17 09:46:00,40.6,35.5,30.24,ESE,104,0.0,4.0,82,0.00,,,0.01,Wunderground v.1.15,2013-03-17 16:46:00,
2013-03-17 09:56:00,41.1,35.7,30.24,SE,128,0.0,4.0,81,0.00,,,0.01,Wunderground v.1.15,2013-03-17 16:56:00,
2013-03-17 10:01:00,41.2,35.5,30.24,ESE,104,0.0,1.0,80,0.00,,,0.01,Wunderground v.1.15,2013-03-17 17:01:00,
2013-03-17 10:11:00,41.3,35.3,30.25,SSE,155,0.0,4.0,79,0.00,,,0.01,Wunderground v.1.15,2013-03-17 17:11:00,
2013-03-17 10:21:00,41.3,35.0,30.25,SE,130,1.0,1.0,78,0.00,,,0.01,Wunderground v.1.15,2013-03-17 17:21:00,
2013-03-17 10:31:00,41.5,34.8,30.25,North,0,0.0,2.0,77,0.00,,,0.01,Wunderground v.1.15,2013-03-17 17:31:00,
2013-03-17 10:41:00,41.9,34.9,30.25,SE,133,1.0,1.0,76,0.00,,,0.01,Wunderground v.1.15,2013-03-17 17:41:00,
2013-03-17 10:46:00,42.2,35.8,30.25,ESE,114,1.0,9.0,78,0.00,,,0.01,Wunderground v.1.15,2013-03-17 17:46:00,
2013-03-17 10:51:00,42.3,35.6,30.25,SE,133,1.0,7.0,77,0.00,,,0.01,Wunderground v.1.15,2013-03-17 17:51:00,
2013-03-17 11:01:00,42.5,35.1,30.25,SSW,206,0.0,2.0,75,0.00,,,0.01,Wunderground v.1.15,2013-03-17 18:01:00,
2013-03-17 11:11:00,42.8,35.4,30.25,NE,44,1.0,6.0,75,0.00,,,0.01,Wunderground v.1.15,2013-03-17 18:11:00,
2013-03-17 11:16:00,42.9,34.8,30.25,East,83,1.0,7.0,73,0.00,,,0.01,Wunderground v.1.15,2013-03-17 18:16:00,
2013-03-17 11:26:00,43.1,34.3,30.26,SSE,165,0.0,1.0,71,0.00,,,0.01,Wunderground v.1.15,2013-03-17 18:26:00,
2013-03-17 11:31:00,43.2,34.8,30.26,SSE,167,0.0,4.0,72,0.00,,,0.01,Wunderground v.1.15,2013-03-17 18:31:00,
2013-03-17 11:41:00,43.6,35.2,30.26,East,89,0.0,1.0,72,0.00,,,0.01,Wunderground v.1.15,2013-03-17 18:41:00,
2013-03-17 11:46:00,43.8,36.0,30.26,North,357,0.0,1.0,74,0.00,,,0.01,Wunderground v.1.15,2013-03-17 18:46:00,
2013-03-17 11:51:00,44.1,36.0,30.25,ENE,59,0.0,2.0,73,0.00,,,0.01,Wunderground v.1.15,2013-03-17 18:51:00,
2013-03-17 12:01:00,44.9,36.1,30.25,SW,226,1.0,7.0,71,0.00,,,0.01,Wunderground v.1.15,2013-03-17 19:01:00,
2013-03-17 12:11:00,45.5,35.9,30.25,SE,141,0.0,1.0,69,0.00,,,0.01,Wunderground v.1.15,2013-03-17 19:11:00,
2013-03-17 12:16:00,45.7,36.1,30.25,ESE,121,1.0,6.0,69,0.00,,,0.01,Wunderground v.1.15,2013-03-17 19:16:00,
2013-03-17 12:21:00,45.7,35.4,30.25,ESE,116,1.0,1.0,67,0.00,,,0.01,Wunderground v.1.15,2013-03-17 19:21:00,
2013-03-17 12:31:00,45.4,35.5,30.25,SW,215,0.0,4.0,68,0.00,,,0.01,Wunderground v.1.15,2013-03-17 19:31:00,
2013-03-17 12:41:00,44.9,34.2,30.25,SE,145,1.0,6.0,66,0.00,,,0.01,Wunderground v.1.15,2013-03-17 19:41:00,
2013-03-17 12:46:00,44.9,33.5,30.25,SE,141,1.0,6.0,64,0.00,,,0.01,Wunderground v.1.15,2013-03-17 19:46:00,
2013-03-17 12:56:00,45.1,35.2,30.25,SSW,192,0.0,4.0,68,0.00,,,0.01,Wunderground v.1.15,2013-03-17 19:56:00,
2013-03-17 13:01:00,44.9,34.6,30.25,East,92,1.0,1.0,67,0.00,,,0.01,Wunderground v.1.15,2013-03-17 20:01:00,
2013-03-17 13:11:00,45.1,33.6,30.25,SSE,155,1.0,2.0,64,0.00,,,0.01,Wunderground v.1.15,2013-03-17 20:11:00,
2013-03-17 13:21:00,45.2,33.7,30.24,SSW,195,1.0,1.0,64,0.00,,,0.01,Wunderground v.1.15,2013-03-17 20:21:00,
2013-03-17 13:26:00,46.1,34.2,30.24,South,171,1.0,2.0,63,0.00,,,0.01,Wunderground v.1.15,2013-03-17 20:26:00,
2013-03-17 13:31:00,46.5,34.6,30.24,South,172,1.0,1.0,63,0.00,,,0.01,Wunderground v.1.15,2013-03-17 20:31:00,
2013-03-17 13:36:00,46.5,35.0,30.24,SSW,208,1.0,7.0,64,0.00,,,0.01,Wunderground v.1.15,2013-03-17 20:36:00,
2013-03-17 13:46:00,46.7,34.0,30.24,SSE,151,1.0,4.0,61,0.00,,,0.01,Wunderground v.1.15,2013-03-17 20:46:00,
2013-03-17 13:56:00,47.4,34.2,30.23,East,82,3.0,16.0,60,0.00,,,0.01,Wunderground v.1.15,2013-03-17 20:56:00,
2013-03-17 14:01:00,47.4,35.4,30.23,SE,126,3.0,3.0,63,0.00,,,0.01,Wunderground v.1.15,2013-03-17 21:01:00,
2013-03-17 14:11:00,47.6,35.2,30.23,SE,138,3.0,3.0,62,0.00,,,0.01,Wunderground v.1.15,2013-03-17 21:11:00,
2013-03-17 14:26:00,48.5,35.7,30.22,South,186,2.0,6.0,61,0.00,,,0.01,Wunderground v.1.15,2013-03-17 21:26:00,
2013-03-17 14:36:00,49.2,35.5,30.22,ESE,110,2.0,11.0,59,0.00,,,0.01,Wunderground v.1.15,2013-03-17 21:36:00,
2013-03-17 14:46:00,49.6,36.3,30.22,North,0,2.0,10.0,60,0.00,,,0.01,Wunderground v.1.15,2013-03-17 21:46:00,
2013-03-17 14:56:00,49.6,35.4,30.22,SE,128,2.0,10.0,58,0.00,,,0.01,Wunderground v.1.15,2013-03-17 21:56:00,
2013-03-17 15:01:00,49.2,35.0,30.22,NW,316,2.0,2.0,58,0.00,,,0.01,Wunderground v.1.15,2013-03-17 22:01:00,
2013-03-17 15:11:00,48.5,35.2,30.22,SSW,212,1.0,1.0,60,0.00,,,0.01,Wunderground v.1.15,2013-03-17 22:11:00,
2013-03-17 15:21:00,47.9,34.7,30.22,NE,42,1.0,1.0,60,0.00,,,0.01,Wunderground v.1.15,2013-03-17 22:21:00,
2013-03-17 15:26:00,47.7,35.3,30.22,SSW,196,1.0,2.0,62,0.00,,,0.01,Wunderground v.1.15,2013-03-17 22:26:00,
2013-03-17 15:31:00,47.9,35.5,30.22,East,99,1.0,8.0,62,0.00,,,0.01,Wunderground v.1.15,2013-03-17 22:31:00,
2013-03-17 15:36:00,48.0,34.8,30.22,SSE,150,1.0,8.0,60,0.00,,,0.01,Wunderground v.1.15,2013-03-17 22:36:00,
2013-03-17 15:46:00,49.2,35.0,30.22,SSW,209,2.0,7.0,58,0.00,,,0.01,Wunderground v.1.15,2013-03-17 22:46:00,
2013-03-17 15:56:00,49.1,34.5,30.22,SSE,147,4.0,9.0,57,0.00,,,0.01,Wunderground v.1.15,2013-03-17 22:56:00,
2013-03-17 16:11:00,47.7,34.1,30.22,SE,136,2.0,2.0,59,0.00,,,0.01,Wunderground v.1.15,2013-03-17 23:11:00,
2013-03-17 16:16:00,47.4,34.6,30.22,WNW,287,1.0,9.0,61,0.00,,,0.01,Wunderground v.1.15,2013-03-17 23:16:00,
2013-03-17 16:26:00,46.7,34.0,30.23,East,95,2.0,9.0,61,0.00,,,0.01,Wunderground v.1.15,2013-03-17 23:26:00,
2013-03-17 16:36:00,46.0,36.4,30.24,WSW,243,2.0,8.0,69,0.00,,,0.01,Wunderground v.1.15,2013-03-17 23:36:00,
2013-03-17 16:46:00,44.5,36.4,30.24,WSW,253,0.0,2.0,73,0.00,,,0.01,Wunderground v.1.15,2013-03-17 23:46:00,
2013-03-17 16:51:00,44.1,37.0,30.24,WSW,246,0.0,6.0,76,0.00,,,0.01,Wunderground v.1.15,2013-03-17 23:51:00,
2013-03-17 17:01:00,43.9,37.5,30.24,WNW,296,0.0,2.0,78,0.00,,,0.01,Wunderground v.1.15,2013-03-18 00:01:00,
2013-03-17 17:06:00,43.9,38.1,30.23,WNW,296,0.0,2.0,80,0.00,,,0.01,Wunderground v.1.15,2013-03-18 00:06:00,
2013-03-17 17:16:00,43.9,36.8,30.23,WNW,298,0.0,0.0,76,0.00,,,0.01,Wunderground v.1.15,2013-03-18 00:16:00,
2013-03-17 17:26:00,43.9,36.8,30.24,WSW,247,0.0,1.0,76,0.00,,,0.01,Wunderground v.1.15,2013-03-18 00:26:00,
2013-03-17 17:31:00,43.6,37.2,30.24,WSW,244,1.0,6.0,78,0.00,,,0.01,Wunderground v.1.15,2013-03-18 00:31:00,
2013-03-17 17:41:00,43.2,37.4,30.24,WSW,246,0.0,2.0,80,0.00,,,0.01,Wunderground v.1.15,2013-03-18 00:41:00,
2013-03-17 17:46:00,42.8,37.4,30.24,WSW,246,0.0,2.0,81,0.00,,,0.01,Wunderground v.1.15,2013-03-18 00:46:00,
2013-03-17 17:56:00,42.6,38.1,30.24,WSW,246,0.0,1.0,84,0.00,,,0.01,Wunderground v.1.15,2013-03-18 00:56:00,
2013-03-17 18:11:00,41.9,38.6,30.24,West,268,0.0,2.0,88,0.07,,,0.03,Wunderground v.1.15,2013-03-18 01:11:00,
2013-03-17 18:21:00,41.8,38.8,30.24,West,271,0.0,1.0,89,0.04,,,0.03,Wunderground v.1.15,2013-03-18 01:21:00,
2013-03-17 18:31:00,41.2,38.2,30.24,WSW,241,0.0,4.0,89,0.00,,,0.03,Wunderground v.1.15,2013-03-18 01:31:00,
2013-03-17 18:36:00,41.2,38.8,30.24,WSW,240,0.0,4.0,91,0.00,,,0.03,Wunderground v.1.15,2013-03-18 01:36:00,
2013-03-17 18:46:00,40.8,38.4,30.24,WSW,254,0.0,1.0,91,0.00,,,0.03,Wunderground v.1.15,2013-03-18 01:46:00,
2013-03-17 18:51:00,40.6,38.2,30.23,West,281,0.0,1.0,91,0.00,,,0.03,Wunderground v.1.15,2013-03-18 01:51:00,
2013-03-17 19:01:00,40.3,37.6,30.23,West,275,0.0,1.0,90,0.00,,,0.03,Wunderground v.1.15,2013-03-18 02:01:00,
2013-03-17 19:11:00,39.9,37.2,30.24,West,261,0.0,1.0,90,0.00,,,0.04,Wunderground v.1.15,2013-03-18 02:11:00,
2013-03-17 19:21:00,39.6,37.2,30.24,West,281,0.0,1.0,91,0.06,,,0.05,Wunderground v.1.15,2013-03-18 02:21:00,
2013-03-17 19:31:00,39.5,37.4,30.24,WNW,282,0.0,0.0,92,0.00,,,0.05,Wunderground v.1.15,2013-03-18 02:31:00,
2013-03-17 19:36:00,39.5,37.4,30.24,West,281,0.0,1.0,92,0.00,,,0.06,Wunderground v.1.15,2013-03-18 02:36:00,
2013-03-17 19:46:00,39.3,37.4,30.24,West,281,0.0,1.0,93,0.00,,,0.06,Wunderground v.1.15,2013-03-18 02:46:00,
2013-03-17 19:56:00,39.3,37.4,30.24,WNW,292,0.0,1.0,93,0.00,,,0.06,Wunderground v.1.15,2013-03-18 02:56:00,
2013-03-17 20:01:00,39.2,37.3,30.24,WNW,292,0.0,1.0,93,0.00,,,0.06,Wunderground v.1.15,2013-03-18 03:01:00,
2013-03-17 20:06:00,39.2,37.3,30.24,WNW,292,0.0,1.0,93,0.00,,,0.07,Wunderground v.1.15,2013-03-18 03:06:00,
2013-03-17 20:11:00,39.2,37.3,30.24,WNW,292,0.0,0.0,93,0.00,,,0.07,Wunderground v.1.15,2013-03-18 03:11:00,
2013-03-17 20:21:00,39.1,37.2,30.24,WNW,292,0.0,0.0,93,0.12,,,0.09,Wunderground v.1.15,2013-03-18 03:21:00,
2013-03-17 20:31:00,38.9,37.3,30.24,WNW,292,0.0,0.0,94,0.07,,,0.10,Wunderground v.1.15,2013-03-18 03:31:00,
2013-03-17 20:41:00,38.8,37.2,30.24,WNW,292,0.0,0.0,94,0.05,,,0.11,Wunderground v.1.15,2013-03-18 03:41:00,
2013-03-17 20:46:00,38.8,37.2,30.24,WNW,292,0.0,0.0,94,0.07,,,0.12,Wunderground v.1.15,2013-03-18 03:46:00,
2013-03-17 20:56:00,38.6,37.0,30.25,WNW,294,0.0,1.0,94,0.11,,,0.14,Wunderground v.1.15,2013-03-18 03:56:00,
2013-03-17 21:01:00,38.5,36.9,30.25,WNW,292,0.0,1.0,94,0.08,,,0.14,Wunderground v.1.15,2013-03-18 04:01:00,
2013-03-17 21:11:00,38.3,37.0,30.25,WNW,292,0.0,0.0,95,0.00,,,0.14,Wunderground v.1.15,2013-03-18 04:11:00,
2013-03-17 21:16:00,38.3,37.0,30.25,WNW,292,0.0,0.0,95,0.00,,,0.14,Wunderground v.1.15,2013-03-18 04:16:00,
2013-03-17 21:21:00,38.3,37.0,30.25,WNW,294,0.0,0.0,95,0.00,,,0.15,Wunderground v.1.15,2013-03-18 04:21:00,
2013-03-17 21:26:00,38.2,36.9,30.25,WNW,294,0.0,0.0,95,0.00,,,0.15,Wunderground v.1.15,2013-03-18 04:26:00,
2013-03-17 21:36:00,38.2,36.9,30.25,WNW,294,0.0,1.0,95,0.05,,,0.16,Wunderground v.1.15,2013-03-18 04:36:00,
2013-03-17 21:41:00,38.0,36.7,30.25,WNW,294,0.0,0.0,95,0.05,,,0.16,Wunderground v.1.15,2013-03-18 04:41:00,
2013-03-17 21:51:00,37.9,36.6,30.25,WNW,295,0.0,1.0,95,0.04,,,0.17,Wunderground v.1.15,2013-03-18 04:51:00,
2013-03-17 22:01:00,37.8,36.5,30.25,North,0,0.0,1.0,95,0.04,,,0.17,Wunderground v.1.15,2013-03-18 05:01:00,
2013-03-17 22:11:00,37.8,36.8,30.25,NNW,347,0.0,1.0,96,0.00,,,0.17,Wunderground v.1.15,2013-03-18 05:11:00,
2013-03-17 22:21:00,37.6,36.6,30.25,NNW,347,0.0,0.0,96,0.00,,,0.17,Wunderground v.1.15,2013-03-18 05:21:00,
2013-03-17 22:31:00,37.6,36.6,30.25,North,349,0.0,1.0,96,0.00,,,0.17,Wunderground v.1.15,2013-03-18 05:31:00,
2013-03-17 22:36:00,37.6,36.6,30.25,NNW,347,0.0,1.0,96,0.00,,,0.17,Wunderground v.1.15,2013-03-18 05:36:00,
2013-03-17 22:46:00,37.6,36.6,30.25,NNW,347,0.0,1.0,96,0.00,,,0.17,Wunderground v.1.15,2013-03-18 05:46:00,
2013-03-17 22:51:00,37.6,36.6,30.25,North,349,0.0,1.0,96,0.00,,,0.17,Wunderground v.1.15,2013-03-18 05:51:00,
2013-03-17 23:01:00,37.6,36.6,30.25,North,349,0.0,0.0,96,0.00,,,0.17,Wunderground v.1.15,2013-03-18 06:01:00,
2013-03-17 23:06:00,37.6,36.6,30.25,North,349,0.0,0.0,96,0.00,,,0.17,Wunderground v.1.15,2013-03-18 06:06:00,
2013-03-17 23:11:00,37.6,36.6,30.25,North,349,0.0,1.0,96,0.00,,,0.17,Wunderground v.1.15,2013-03-18 06:11:00,
2013-03-17 23:16:00,37.6,36.8,30.25,North,349,0.0,1.0,97,0.00,,,0.17,Wunderground v.1.15,2013-03-18 06:16:00,
2013-03-17 23:26:00,37.6,36.8,30.25,North,349,0.0,0.0,97,0.00,,,0.17,Wunderground v.1.15,2013-03-18 06:26:00,
2013-03-17 23:36:00,37.8,37.0,30.25,NNW,346,0.0,1.0,97,0.00,,,0.17,Wunderground v.1.15,2013-03-18 06:36:00,
2013-03-17 23:46:00,37.9,37.1,30.25,North,349,0.0,1.0,97,0.00,,,0.17,Wunderground v.1.15,2013-03-18 06:46:00,
2013-03-17 23:56:00,37.9,37.1,30.25,NNE,23,0.0,6.0,97,0.00,,,0.17,Wunderground v.1.15,2013-03-18 06:56:00,